Time,TemperatureF,DewpointF,PressureIn,WindDirection,WindDirectionDegrees,WindSpeedMPH,WindSpeedGustMPH,Humidity,HourlyPrecipIn,Conditions,Clouds,dailyrainin,SoftwareType,DateUTC
2013-09-11 00:03:00,77.2,58.2,30.06,SE,132,0.0,0.0,52,0.00,CLR,,0.00,WeatherDisplay:10.37,2013-09-11 05:03:00,
2013-09-11 00:08:00,77.2,58.2,30.06,SE,132,0.0,0.0,52,0.00,CLR,,0.00,WeatherDisplay:10.37,2013-09-11 05:08:00,
2013-09-11 00:13:00,77.2,58.2,30.06,SE,132,0.0,0.0,52,0.00,CLR,,0.00,WeatherDisplay:10.37,2013-09-11 05:13:00,
2013-09-11 00:18:00,77.0,58.6,30.06,SE,131,0.0,0.0,53,0.00,CLR,,0.00,WeatherDisplay:10.37,2013-09-11 05:18:00,
2013-09-11 00:23:00,76.8,58.4,30.06,SE,131,0.0,0.0,53,0.00,CLR,,0.00,WeatherDisplay:10.37,2013-09-11 05:23:00,
2013-09-11 00:28:00,76.6,58.7,30.09,SE,137,0.0,0.0,54,0.00,CLR,,0.00,WeatherDisplay:10.37,2013-09-11 05:28:00,
2013-09-11 00:33:00,76.6,58.7,30.09,SE,132,0.0,0.0,54,0.00,CLR,,0.00,WeatherDisplay:10.37,2013-09-11 05:33:00,
2013-09-11 00:38:00,76.5,58.6,30.09,ESE,115,0.0,0.0,54,0.00,CLR,,0.00,WeatherDisplay:10.37,2013-09-11 05:38:00,
2013-09-11 00:43:00,76.5,58.6,30.09,ESE,115,0.0,0.0,54,0.00,CLR,,0.00,WeatherDisplay:10.37,2013-09-11 05:43:00,
2013-09-11 00:48:00,76.3,58.9,30.09,ESE,123,0.0,0.0,55,0.00,CLR,,0.00,WeatherDisplay:10.37,2013-09-11 05:48:00,
2013-09-11 00:53:00,76.3,58.9,30.09,SE,138,0.0,0.0,55,0.00,CLR,,0.00,WeatherDisplay:10.37,2013-09-11 05:53:00,
2013-09-11 00:58:00,76.3,59.4,30.09,SE,135,0.0,0.0,56,0.00,CLR,,0.00,WeatherDisplay:10.37,2013-09-11 05:58:00,
2013-09-11 01:03:00,76.1,59.8,30.09,SE,134,0.0,0.0,57,0.00,CLR,,0.00,WeatherDisplay:10.37,2013-09-11 06:03:00,
2013-09-11 01:08:00,76.1,59.8,30.09,SE,134,0.0,0.0,57,0.00,CLR,,0.00,WeatherDisplay:10.37,2013-09-11 06:08:00,
2013-09-11 01:13:00,75.9,59.6,30.09,SE,130,0.0,0.0,57,0.00,CLR,,0.00,WeatherDisplay:10.37,2013-09-11 06:13:00,
2013-09-11 01:18:00,75.9,59.6,30.09,SE,132,0.0,0.0,57,0.00,CLR,,0.00,WeatherDisplay:10.37,2013-09-11 06:18:00,
2013-09-11 01:23:00,75.9,60.1,30.09,SE,132,0.0,0.0,58,0.00,CLR,,0.00,WeatherDisplay:10.37,2013-09-11 06:23:00,
2013-09-11 01:28:00,75.7,60.4,30.09,SE,134,0.0,0.0,59,0.00,CLR,,0.00,WeatherDisplay:10.37,2013-09-11 06:28:00,
2013-09-11 01:33:00,75.7,59.9,30.09,SW,229,0.0,0.0,58,0.00,CLR,,0.00,WeatherDisplay:10.37,2013-09-11 06:33:00,
2013-09-11 01:38:00,75.7,60.4,30.09,WSW,248,0.0,0.0,59,0.00,CLR,,0.00,WeatherDisplay:10.37,2013-09-11 06:38:00,
2013-09-11 01:43:00,75.7,60.9,30.09,WSW,250,0.0,0.0,60,0.00,CLR,,0.00,WeatherDisplay:10.37,2013-09-11 06:43:00,
2013-09-11 01:48:00,75.9,61.0,30.09,WSW,250,0.0,0.0,60,0.00,CLR,,0.00,WeatherDisplay:10.37,2013-09-11 06:48:00,
2013-09-11 01:53:00,75.9,61.0,30.09,WSW,250,0.0,0.0,60,0.00,CLR,,0.00,WeatherDisplay:10.37,2013-09-11 06:53:00,
2013-09-11 01:58:00,75.9,61.0,30.09,WSW,250,0.0,0.0,60,0.00,CLR,,0.00,WeatherDisplay:10.37,2013-09-11 06:58:00,
2013-09-11 02:03:00,75.7,60.9,30.09,WSW,250,0.0,0.0,60,0.00,CLR,,0.00,WeatherDisplay:10.37,2013-09-11 07:03:00,
2013-09-11 02:08:00,75.7,60.9,30.09,SW,232,0.0,0.0,60,0.00,CLR,,0.00,WeatherDisplay:10.37,2013-09-11 07:08:00,
2013-09-11 02:13:00,75.7,61.3,30.09,SW,230,2.3,0.0,61,0.00,CLR,,0.00,WeatherDisplay:10.37,2013-09-11 07:13:00,
2013-09-11 02:18:00,75.7,61.3,30.09,SW,218,2.3,0.0,61,0.00,CLR,,0.00,WeatherDisplay:10.37,2013-09-11 07:18:00,
2013-09-11 02:23:00,75.7,61.3,30.09,SW,220,2.3,0.0,61,0.00,CLR,,0.00,WeatherDisplay:10.37,2013-09-11 07:23:00,
2013-09-11 02:28:00,75.7,61.8,30.09,SSW,201,2.2,0.0,62,0.00,CLR,,0.00,WeatherDisplay:10.37,2013-09-11 07:28:00,
2013-09-11 02:33:00,75.7,61.8,30.09,South,183,3.5,0.0,62,0.00,CLR,,0.00,WeatherDisplay:10.37,2013-09-11 07:33:00,
2013-09-11 02:38:00,75.7,61.8,30.09,SSW,196,2.7,0.0,62,0.00,CLR,,0.00,WeatherDisplay:10.37,2013-09-11 07:38:00,
2013-09-11 02:43:00,75.6,62.1,30.09,SSW,198,3.5,3.5,63,0.00,CLR,,0.00,WeatherDisplay:10.37,2013-09-11 07:43:00,
2013-09-11 02:48:00,75.6,62.1,30.09,South,191,2.3,0.0,63,0.00,CLR,,0.00,WeatherDisplay:10.37,2013-09-11 07:48:00,
2013-09-11 02:53:00,75.6,62.5,30.09,SSW,207,0.0,0.0,64,0.00,CLR,,0.00,WeatherDisplay:10.37,2013-09-11 07:53:00,
2013-09-11 02:58:00,75.6,62.5,30.09,SSW,206,0.0,0.0,64,0.00,CLR,,0.00,WeatherDisplay:10.37,2013-09-11 07:58:00,
2013-09-11 03:03:00,75.4,62.4,30.09,SW,236,0.0,0.0,64,0.00,CLR,,0.00,WeatherDisplay:10.37,2013-09-11 08:03:00,
2013-09-11 03:08:00,75.2,62.2,30.09,SW,236,0.0,0.0,64,0.00,CLR,,0.00,WeatherDisplay:10.37,2013-09-11 08:08:00,
2013-09-11 03:13:00,75.2,62.2,30.09,SW,236,0.0,0.0,64,0.00,CLR,,0.00,WeatherDisplay:10.37,2013-09-11 08:13:00,
2013-09-11 03:18:00,75.2,62.2,30.09,SW,236,0.0,0.0,64,0.00,CLR,,0.00,WeatherDisplay:10.37,2013-09-11 08:18:00,
2013-09-11 03:23:00,75.0,62.5,30.09,SW,236,0.0,0.0,65,0.00,CLR,,0.00,WeatherDisplay:10.37,2013-09-11 08:23:00,
2013-09-11 03:28:00,75.0,62.5,30.09,SW,236,0.0,0.0,65,0.00,CLR,,0.00,WeatherDisplay:10.37,2013-09-11 08:28:00,
2013-09-11 03:33:00,75.0,62.9,30.09,SW,236,0.0,0.0,66,0.00,CLR,,0.00,WeatherDisplay:10.37,2013-09-11 08:33:00,
2013-09-11 03:38:00,75.0,62.5,30.09,SW,236,0.0,0.0,65,0.00,CLR,,0.00,WeatherDisplay:10.37,2013-09-11 08:38:00,
2013-09-11 03:43:00,74.8,61.8,30.09,SW,236,0.0,0.0,64,0.00,CLR,,0.00,WeatherDisplay:10.37,2013-09-11 08:43:00,
2013-09-11 03:48:00,74.8,61.8,30.09,SW,236,0.0,0.0,64,0.00,CLR,,0.00,WeatherDisplay:10.37,2013-09-11 08:48:00,
2013-09-11 03:53:00,74.7,61.7,30.09,SW,236,0.0,0.0,64,0.00,CLR,,0.00,WeatherDisplay:10.37,2013-09-11 08:53:00,
2013-09-11 03:58:00,74.5,61.5,30.09,SW,236,0.0,0.0,64,0.00,CLR,,0.00,WeatherDisplay:10.37,2013-09-11 08:58:00,
2013-09-11 04:03:00,74.5,61.9,30.09,SW,236,0.0,0.0,65,0.00,CLR,,0.00,WeatherDisplay:10.37,2013-09-11 09:03:00,
2013-09-11 04:08:00,74.3,62.2,30.09,SW,236,0.0,0.0,66,0.00,CLR,,0.00,WeatherDisplay:10.37,2013-09-11 09:08:00,
2013-09-11 04:13:00,74.1,62.5,30.09,SW,236,0.0,0.0,67,0.00,CLR,,0.00,WeatherDisplay:10.37,2013-09-11 09:13:00,
2013-09-11 04:18:00,74.1,62.5,30.09,SW,236,0.0,0.0,67,0.00,CLR,,0.00,WeatherDisplay:10.37,2013-09-11 09:18:00,
2013-09-11 04:23:00,73.9,62.3,30.09,SW,236,0.0,0.0,67,0.00,CLR,,0.00,WeatherDisplay:10.37,2013-09-11 09:23:00,
2013-09-11 04:28:00,73.9,62.3,30.09,SW,236,0.0,0.0,67,0.00,CLR,,0.00,WeatherDisplay:10.37,2013-09-11 09:28:00,
2013-09-11 04:33:00,74.1,62.9,30.09,SW,236,0.0,0.0,68,0.00,CLR,,0.00,WeatherDisplay:10.37,2013-09-11 09:33:00,
2013-09-11 04:39:00,73.9,62.7,30.09,SW,236,0.0,0.0,68,0.00,CLR,,0.00,WeatherDisplay:10.37,2013-09-11 09:39:00,
2013-09-11 04:44:00,73.9,63.1,30.09,SW,236,0.0,0.0,69,0.00,CLR,,0.00,WeatherDisplay:10.37,2013-09-11 09:44:00,
2013-09-11 04:49:00,73.9,63.1,30.09,SW,236,0.0,0.0,69,0.00,CLR,,0.00,WeatherDisplay:10.37,2013-09-11 09:49:00,
2013-09-11 04:54:00,73.9,63.1,30.09,SW,236,0.0,0.0,69,0.00,CLR,,0.00,WeatherDisplay:10.37,2013-09-11 09:54:00,
2013-09-11 04:59:00,73.9,63.5,30.09,SW,236,0.0,0.0,70,0.00,CLR,,0.00,WeatherDisplay:10.37,2013-09-11 09:59:00,
2013-09-11 05:04:00,73.9,63.5,30.09,SW,236,0.0,0.0,70,0.00,CLR,,0.00,WeatherDisplay:10.37,2013-09-11 10:04:00,
2013-09-11 05:09:00,73.9,63.1,30.09,SW,236,0.0,0.0,69,0.00,CLR,,0.00,WeatherDisplay:10.37,2013-09-11 10:09:00,
2013-09-11 05:14:00,73.8,63.4,30.09,SW,236,0.0,0.0,70,0.00,CLR,,0.00,WeatherDisplay:10.37,2013-09-11 10:14:00,
2013-09-11 05:19:00,73.8,63.4,30.09,SW,236,0.0,0.0,70,0.00,CLR,,0.00,WeatherDisplay:10.37,2013-09-11 10:19:00,
2013-09-11 05:24:00,73.6,63.2,30.09,SW,236,0.0,0.0,70,0.00,CLR,,0.00,WeatherDisplay:10.37,2013-09-11 10:24:00,
2013-09-11 05:29:00,73.6,63.2,30.09,SW,236,0.0,0.0,70,0.00,CLR,,0.00,WeatherDisplay:10.37,2013-09-11 10:29:00,
2013-09-11 05:34:00,73.4,63.4,30.09,SW,236,0.0,0.0,71,0.00,CLR,,0.00,WeatherDisplay:10.37,2013-09-11 10:34:00,
2013-09-11 05:39:00,73.4,63.4,30.09,SW,236,0.0,0.0,71,0.00,CLR,,0.00,WeatherDisplay:10.37,2013-09-11 10:39:00,
2013-09-11 05:44:00,73.4,63.4,30.09,SW,236,0.0,0.0,71,0.00,CLR,,0.00,WeatherDisplay:10.37,2013-09-11 10:44:00,
2013-09-11 05:49:00,73.4,63.4,30.09,SW,236,0.0,0.0,71,0.00,CLR,,0.00,WeatherDisplay:10.37,2013-09-11 10:49:00,
2013-09-11 05:54:00,73.4,63.4,30.09,SW,236,0.0,0.0,71,0.00,CLR,,0.00,WeatherDisplay:10.37,2013-09-11 10:54:00,
2013-09-11 05:59:00,73.4,63.4,30.09,SW,236,0.0,0.0,71,0.00,CLR,,0.00,WeatherDisplay:10.37,2013-09-11 10:59:00,
2013-09-11 06:04:00,73.2,63.2,30.09,SW,236,0.0,0.0,71,0.00,CLR,,0.00,WeatherDisplay:10.37,2013-09-11 11:04:00,
2013-09-11 06:09:00,73.0,63.1,30.09,SW,236,0.0,0.0,71,0.00,CLR,,0.00,WeatherDisplay:10.37,2013-09-11 11:09:00,
2013-09-11 06:14:00,73.0,63.5,30.09,SW,236,0.0,0.0,72,0.00,CLR,,0.00,WeatherDisplay:10.37,2013-09-11 11:14:00,
2013-09-11 06:19:00,73.0,63.5,30.09,SW,236,0.0,0.0,72,0.00,CLR,,0.00,WeatherDisplay:10.37,2013-09-11 11:19:00,
2013-09-11 06:24:00,73.0,63.5,30.09,WSW,249,0.0,0.0,72,0.00,CLR,,0.00,WeatherDisplay:10.37,2013-09-11 11:24:00,
2013-09-11 06:29:00,72.9,63.3,30.09,WSW,250,0.0,0.0,72,0.00,CLR,,0.00,WeatherDisplay:10.37,2013-09-11 11:29:00,
2013-09-11 06:34:00,72.7,63.5,30.09,WSW,249,0.0,0.0,73,0.00,CLR,,0.00,WeatherDisplay:10.37,2013-09-11 11:34:00,
2013-09-11 06:39:00,72.7,63.5,30.09,WSW,258,0.0,0.0,73,0.00,CLR,,0.00,WeatherDisplay:10.37,2013-09-11 11:39:00,
2013-09-11 06:44:00,72.7,63.5,30.09,West,274,0.0,0.0,73,0.00,CLR,,0.00,WeatherDisplay:10.37,2013-09-11 11:44:00,
2013-09-11 06:49:00,72.5,63.7,30.09,West,274,0.0,0.0,74,0.00,CLR,,0.00,WeatherDisplay:10.37,2013-09-11 11:49:00,
2013-09-11 06:54:00,72.5,63.7,30.09,West,274,0.0,0.0,74,0.00,CLR,,0.00,WeatherDisplay:10.37,2013-09-11 11:54:00,
2013-09-11 06:59:00,72.5,63.7,30.09,West,274,0.0,0.0,74,0.00,CLR,,0.00,WeatherDisplay:10.37,2013-09-11 11:59:00,
2013-09-11 07:04:00,72.5,63.7,30.09,West,274,0.0,0.0,74,0.00,CLR,,0.00,WeatherDisplay:10.37,2013-09-11 12:04:00,
2013-09-11 07:09:00,72.5,64.1,30.09,West,274,0.0,0.0,75,0.00,CLR,,0.00,WeatherDisplay:10.37,2013-09-11 12:09:00,
2013-09-11 07:14:00,72.3,63.9,30.12,West,274,0.0,0.0,75,0.00,CLR,,0.00,WeatherDisplay:10.37,2013-09-11 12:14:00,
2013-09-11 07:19:00,72.5,64.1,30.12,West,274,0.0,0.0,75,0.00,CLR,,0.00,WeatherDisplay:10.37,2013-09-11 12:19:00,
2013-09-11 07:24:00,72.5,64.1,30.12,West,274,0.0,0.0,75,0.00,CLR,,0.00,WeatherDisplay:10.37,2013-09-11 12:24:00,
2013-09-11 07:29:00,72.5,64.1,30.12,West,274,0.0,0.0,75,0.00,CLR,,0.00,WeatherDisplay:10.37,2013-09-11 12:29:00,
2013-09-11 07:34:00,72.5,64.1,30.12,West,274,0.0,0.0,75,0.00,CLR,,0.00,WeatherDisplay:10.37,2013-09-11 12:34:00,
2013-09-11 07:39:00,72.5,64.5,30.12,West,274,0.0,0.0,76,0.00,CLR,,0.00,WeatherDisplay:10.37,2013-09-11 12:39:00,
2013-09-11 07:44:00,72.5,64.5,30.12,West,274,0.0,0.0,76,0.00,CLR,,0.00,WeatherDisplay:10.37,2013-09-11 12:44:00,
2013-09-11 07:49:00,72.5,64.5,30.12,West,274,0.0,0.0,76,0.00,CLR,,0.00,WeatherDisplay:10.37,2013-09-11 12:49:00,
2013-09-11 07:54:00,72.5,64.5,30.12,West,274,0.0,0.0,76,0.00,CLR,,0.00,WeatherDisplay:10.37,2013-09-11 12:54:00,
2013-09-11 07:59:00,72.9,64.5,30.12,West,274,0.0,0.0,75,0.00,CLR,,0.00,WeatherDisplay:10.37,2013-09-11 12:59:00,
2013-09-11 08:04:00,73.0,64.6,30.12,West,274,0.0,0.0,75,0.00,CLR,,0.00,WeatherDisplay:10.37,2013-09-11 13:04:00,
2013-09-11 08:09:00,73.0,64.6,30.12,West,274,0.0,0.0,75,0.00,CLR,,0.00,WeatherDisplay:10.37,2013-09-11 13:09:00,
2013-09-11 08:14:00,73.2,65.2,30.12,West,274,0.0,0.0,76,0.00,CLR,,0.00,WeatherDisplay:10.37,2013-09-11 13:14:00,
2013-09-11 08:19:00,73.2,65.2,30.12,West,274,0.0,0.0,76,0.00,CLR,,0.00,WeatherDisplay:10.37,2013-09-11 13:19:00,
2013-09-11 08:24:00,73.2,65.2,30.12,West,274,0.0,0.0,76,0.00,CLR,,0.00,WeatherDisplay:10.37,2013-09-11 13:24:00,
2013-09-11 08:29:00,74.1,66.1,30.12,North,353,0.0,0.0,76,0.00,CLR,,0.00,WeatherDisplay:10.37,2013-09-11 13:29:00,
2013-09-11 08:34:00,74.3,66.2,30.12,ESE,110,0.0,0.0,76,0.00,CLR,,0.00,WeatherDisplay:10.37,2013-09-11 13:34:00,
2013-09-11 08:39:00,74.3,66.2,30.12,NNE,29,0.0,0.0,76,0.00,CLR,,0.00,WeatherDisplay:10.37,2013-09-11 13:39:00,
2013-09-11 08:44:00,74.3,66.2,30.12,NNE,19,0.0,0.0,76,0.00,CLR,,0.00,WeatherDisplay:10.37,2013-09-11 13:44:00,
2013-09-11 08:49:00,75.4,67.7,30.12,NE,37,0.0,0.0,77,0.00,CLR,,0.00,WeatherDisplay:10.37,2013-09-11 13:49:00,
2013-09-11 08:54:00,75.4,67.7,30.12,East,89,0.0,0.0,77,0.00,CLR,,0.00,WeatherDisplay:10.37,2013-09-11 13:54:00,
2013-09-11 08:59:00,75.7,67.6,30.12,East,79,0.0,0.0,76,0.00,CLR,,0.00,WeatherDisplay:10.37,2013-09-11 13:59:00,
2013-09-11 09:04:00,75.9,67.8,30.12,SSE,148,0.0,0.0,76,0.00,CLR,,0.00,WeatherDisplay:10.37,2013-09-11 14:04:00,
2013-09-11 09:09:00,75.9,67.8,30.12,SE,138,0.0,0.0,76,0.00,CLR,,0.00,WeatherDisplay:10.37,2013-09-11 14:09:00,
2013-09-11 09:14:00,76.3,68.2,30.12,SE,146,0.0,0.0,76,0.00,CLR,,0.00,WeatherDisplay:10.37,2013-09-11 14:14:00,
2013-09-11 09:19:00,76.3,68.2,30.12,SE,130,0.0,0.0,76,0.00,CLR,,0.00,WeatherDisplay:10.37,2013-09-11 14:19:00,
2013-09-11 09:24:00,76.8,69.1,30.12,SE,140,0.0,0.0,77,0.00,CLR,,0.00,WeatherDisplay:10.37,2013-09-11 14:24:00,
2013-09-11 09:29:00,76.8,69.1,30.12,SSW,200,0.0,0.0,77,0.00,CLR,,0.00,WeatherDisplay:10.37,2013-09-11 14:29:00,
2013-09-11 09:34:00,76.8,69.1,30.12,SSE,164,0.0,0.0,77,0.00,CLR,,0.00,WeatherDisplay:10.37,2013-09-11 14:34:00,
2013-09-11 09:39:00,77.7,68.8,30.12,SW,227,0.0,0.0,74,0.00,CLR,,0.00,WeatherDisplay:10.37,2013-09-11 14:39:00,
2013-09-11 09:44:00,77.7,68.8,30.15,SW,223,0.0,0.0,74,0.00,CLR,,0.00,WeatherDisplay:10.37,2013-09-11 14:44:00,
2013-09-11 09:49:00,78.3,68.5,30.15,SSE,167,0.0,2.0,72,0.00,CLR,,0.00,WeatherDisplay:10.37,2013-09-11 14:49:00,
2013-09-11 09:54:00,78.6,69.2,30.15,SSE,151,0.0,3.0,73,0.00,CLR,,0.00,WeatherDisplay:10.37,2013-09-11 14:54:00,
2013-09-11 09:59:00,79.0,69.2,30.15,SE,134,0.0,3.0,72,0.00,CLR,,0.00,WeatherDisplay:10.37,2013-09-11 14:59:00,
2013-09-11 10:04:00,79.2,68.9,30.15,SSE,152,0.0,3.0,71,0.00,CLR,,0.00,WeatherDisplay:10.37,2013-09-11 15:04:00,
2013-09-11 10:09:00,79.9,68.8,30.15,South,182,2.0,4.0,69,0.00,CLR,,0.00,WeatherDisplay:10.37,2013-09-11 15:09:00,
2013-09-11 10:14:00,80.4,69.3,30.15,South,174,0.0,3.0,69,0.00,CLR,,0.00,WeatherDisplay:10.37,2013-09-11 15:14:00,
2013-09-11 10:19:00,80.4,68.5,30.15,South,187,0.0,3.0,67,0.00,CLR,,0.00,WeatherDisplay:10.37,2013-09-11 15:19:00,
2013-09-11 10:24:00,80.6,68.6,30.15,SE,136,3.5,3.5,67,0.00,CLR,,0.00,WeatherDisplay:10.37,2013-09-11 15:24:00,
2013-09-11 10:29:00,81.1,68.7,30.15,WSW,246,3.5,0.0,66,0.00,CLR,,0.00,WeatherDisplay:10.37,2013-09-11 15:29:00,
2013-09-11 10:34:00,81.3,68.9,30.15,South,172,3.5,3.5,66,0.00,CLR,,0.00,WeatherDisplay:10.37,2013-09-11 15:34:00,
2013-09-11 10:39:00,81.9,69.4,30.15,SW,231,3.5,3.5,66,0.00,CLR,,0.00,WeatherDisplay:10.37,2013-09-11 15:39:00,
2013-09-11 10:44:00,81.7,68.8,30.15,SE,144,3.5,0.0,65,0.00,CLR,,0.00,WeatherDisplay:10.37,2013-09-11 15:44:00,
2013-09-11 10:49:00,82.0,69.6,30.15,NE,47,0.0,0.0,66,0.00,CLR,,0.00,WeatherDisplay:10.37,2013-09-11 15:49:00,
2013-09-11 10:54:00,82.0,69.1,30.15,SW,234,0.0,2.7,65,0.00,CLR,,0.00,WeatherDisplay:10.37,2013-09-11 15:54:00,
2013-09-11 10:59:00,82.0,68.7,30.15,SW,225,3.5,3.5,64,0.00,CLR,,0.00,WeatherDisplay:10.37,2013-09-11 15:59:00,
2013-09-11 11:04:00,82.6,69.6,30.15,West,264,2.3,2.3,65,0.00,CLR,,0.00,WeatherDisplay:10.37,2013-09-11 16:04:00,
2013-09-11 11:09:00,82.8,69.8,30.15,WSW,252,3.5,3.5,65,0.00,CLR,,0.00,WeatherDisplay:10.37,2013-09-11 16:09:00,
2013-09-11 11:14:00,83.1,69.7,30.15,SSW,211,3.5,3.5,64,0.00,CLR,,0.00,WeatherDisplay:10.37,2013-09-11 16:14:00,
2013-09-11 11:20:00,83.7,70.2,30.15,WSW,252,3.5,0.0,64,0.00,CLR,,0.00,WeatherDisplay:10.37,2013-09-11 16:20:00,
2013-09-11 11:25:00,83.7,69.7,30.15,East,99,3.5,0.0,63,0.00,CLR,,0.00,WeatherDisplay:10.37,2013-09-11 16:25:00,
2013-09-11 11:30:00,83.7,69.3,30.15,SSW,209,4.9,0.0,62,0.00,CLR,,0.00,WeatherDisplay:10.37,2013-09-11 16:30:00,
2013-09-11 11:35:00,84.6,69.1,30.15,North,357,3.5,0.0,60,0.00,CLR,,0.00,WeatherDisplay:10.37,2013-09-11 16:35:00,
2013-09-11 11:40:00,84.7,69.8,30.15,SE,141,3.5,4.0,61,0.00,CLR,,0.00,WeatherDisplay:10.37,2013-09-11 16:40:00,
2013-09-11 11:45:00,85.1,69.7,30.12,ESE,113,2.3,2.7,60,0.00,CLR,,0.00,WeatherDisplay:10.37,2013-09-11 16:45:00,
2013-09-11 11:50:00,85.8,70.3,30.12,SE,137,5.8,5.8,60,0.00,CLR,,0.00,WeatherDisplay:10.37,2013-09-11 16:50:00,
2013-09-11 11:55:00,85.6,69.2,30.12,ESE,122,2.3,0.0,58,0.00,CLR,,0.00,WeatherDisplay:10.37,2013-09-11 16:55:00,
2013-09-11 12:00:00,85.8,69.3,30.12,NNE,25,0.0,0.0,58,0.00,CLR,,0.00,WeatherDisplay:10.37,2013-09-11 17:00:00,
2013-09-11 12:05:00,86.0,69.5,30.12,SSE,150,4.0,4.0,58,0.00,CLR,,0.00,WeatherDisplay:10.37,2013-09-11 17:05:00,
2013-09-11 12:10:00,86.2,69.7,30.12,ENE,76,3.5,3.5,58,0.00,CLR,,0.00,WeatherDisplay:10.37,2013-09-11 17:10:00,
2013-09-11 12:15:00,86.4,68.8,30.12,SE,133,5.8,5.8,56,0.00,CLR,,0.00,WeatherDisplay:10.37,2013-09-11 17:15:00,
2013-09-11 12:20:00,86.5,69.0,30.12,East,100,3.6,0.0,56,0.00,CLR,,0.00,WeatherDisplay:10.37,2013-09-11 17:20:00,
2013-09-11 12:25:00,86.7,69.1,30.12,East,98,5.8,5.8,56,0.00,CLR,,0.00,WeatherDisplay:10.37,2013-09-11 17:25:00,
2013-09-11 12:30:00,87.1,69.5,30.12,ESE,118,5.8,5.8,56,0.00,CLR,,0.00,WeatherDisplay:10.37,2013-09-11 17:30:00,
2013-09-11 12:35:00,87.4,69.3,30.12,SE,139,8.1,8.1,55,0.00,CLR,,0.00,WeatherDisplay:10.37,2013-09-11 17:35:00,
2013-09-11 12:40:00,87.4,68.2,30.12,WSW,250,3.5,3.5,53,0.00,CLR,,0.00,WeatherDisplay:10.37,2013-09-11 17:40:00,
2013-09-11 12:45:00,87.1,67.9,30.12,WSW,245,3.5,3.5,53,0.00,CLR,,0.00,WeatherDisplay:10.37,2013-09-11 17:45:00,
2013-09-11 12:50:00,87.1,66.8,30.12,NNW,343,2.7,0.0,51,0.00,CLR,,0.00,WeatherDisplay:10.37,2013-09-11 17:50:00,
2013-09-11 12:55:00,87.4,67.7,30.12,ENE,62,3.5,3.5,52,0.00,CLR,,0.00,WeatherDisplay:10.37,2013-09-11 17:55:00,
2013-09-11 13:00:00,87.3,68.0,30.12,WSW,243,5.8,0.0,53,0.00,CLR,,0.00,WeatherDisplay:10.37,2013-09-11 18:00:00,
2013-09-11 13:05:00,87.8,68.0,30.12,SSW,197,3.5,3.5,52,0.00,CLR,,0.00,WeatherDisplay:10.37,2013-09-11 18:05:00,
2013-09-11 13:10:00,87.8,68.0,30.12,SE,124,5.8,5.8,52,0.00,CLR,,0.00,WeatherDisplay:10.37,2013-09-11 18:10:00,
2013-09-11 13:15:00,88.2,67.8,30.12,ESE,113,4.6,4.6,51,0.00,CLR,,0.00,WeatherDisplay:10.37,2013-09-11 18:15:00,
2013-09-11 13:20:00,88.7,68.8,30.12,NE,50,3.5,3.5,52,0.00,CLR,,0.00,WeatherDisplay:10.37,2013-09-11 18:20:00,
2013-09-11 13:25:00,89.1,69.1,30.12,WSW,243,3.5,0.0,52,0.00,CLR,,0.00,WeatherDisplay:10.37,2013-09-11 18:25:00,
2013-09-11 13:30:00,89.1,68.0,30.09,SW,235,5.8,5.8,50,0.00,CLR,,0.00,WeatherDisplay:10.37,2013-09-11 18:30:00,
2013-09-11 13:35:00,89.2,68.2,30.09,WSW,239,5.8,5.8,50,0.00,CLR,,0.00,WeatherDisplay:10.37,2013-09-11 18:35:00,
2013-09-11 13:40:00,89.1,66.8,30.09,East,80,3.1,0.0,48,0.00,CLR,,0.00,WeatherDisplay:10.37,2013-09-11 18:40:00,
2013-09-11 13:45:00,88.7,65.3,30.09,NNW,346,5.8,5.8,46,0.00,CLR,,0.00,WeatherDisplay:10.37,2013-09-11 18:45:00,
2013-09-11 13:50:00,88.5,65.7,30.09,NE,48,3.5,3.5,47,0.00,CLR,,0.00,WeatherDisplay:10.37,2013-09-11 18:50:00,
2013-09-11 13:55:00,88.7,65.9,30.09,East,86,5.8,5.8,47,0.00,CLR,,0.00,WeatherDisplay:10.37,2013-09-11 18:55:00,
2013-09-11 14:00:00,88.9,65.4,30.09,NW,320,3.5,3.5,46,0.00,CLR,,0.00,WeatherDisplay:10.37,2013-09-11 19:00:00,
2013-09-11 14:05:00,88.9,66.0,30.09,ENE,63,0.0,0.0,47,0.00,CLR,,0.00,WeatherDisplay:10.37,2013-09-11 19:05:00,
2013-09-11 14:10:00,89.8,66.9,30.09,NNW,332,5.8,5.8,47,0.00,CLR,,0.00,WeatherDisplay:10.37,2013-09-11 19:10:00,
2013-09-11 14:15:00,90.0,67.0,30.09,East,81,4.6,4.6,47,0.00,CLR,,0.00,WeatherDisplay:10.37,2013-09-11 19:15:00,
2013-09-11 14:20:00,89.8,66.9,30.09,SSW,203,3.5,3.5,47,0.00,CLR,,0.00,WeatherDisplay:10.37,2013-09-11 19:20:00,
2013-09-11 14:25:00,89.8,65.6,30.09,North,357,4.6,4.6,45,0.00,CLR,,0.00,WeatherDisplay:10.37,2013-09-11 19:25:00,
2013-09-11 14:30:00,89.8,66.2,30.06,NNE,19,5.8,5.8,46,0.00,CLR,,0.00,WeatherDisplay:10.37,2013-09-11 19:30:00,
2013-09-11 14:35:00,89.8,66.9,30.06,ESE,111,7.6,7.6,47,0.00,CLR,,0.00,WeatherDisplay:10.37,2013-09-11 19:35:00,
2013-09-11 14:40:00,90.1,65.9,30.06,ESE,104,8.1,8.1,45,0.00,CLR,,0.00,WeatherDisplay:10.37,2013-09-11 19:40:00,
2013-09-11 14:45:00,90.0,65.8,30.06,West,275,3.5,3.5,45,0.00,CLR,,0.00,WeatherDisplay:10.37,2013-09-11 19:45:00,
2013-09-11 14:50:00,90.1,65.9,30.06,ESE,106,3.6,3.6,45,0.00,CLR,,0.00,WeatherDisplay:10.37,2013-09-11 19:50:00,
2013-09-11 14:55:00,90.5,66.3,30.06,WNW,282,4.6,4.6,45,0.00,CLR,,0.00,WeatherDisplay:10.37,2013-09-11 19:55:00,
2013-09-11 15:00:00,90.3,66.1,30.06,SSE,163,5.8,0.0,45,0.00,CLR,,0.00,WeatherDisplay:10.37,2013-09-11 20:00:00,
2013-09-11 15:05:00,90.3,66.1,30.06,ENE,69,5.8,5.8,45,0.00,CLR,,0.00,WeatherDisplay:10.37,2013-09-11 20:05:00,
2013-09-11 15:10:00,90.3,65.4,30.06,SSW,204,3.5,3.5,44,0.00,CLR,,0.00,WeatherDisplay:10.37,2013-09-11 20:10:00,
2013-09-11 15:15:00,90.1,64.6,30.03,ENE,62,3.5,3.5,43,0.00,CLR,,0.00,WeatherDisplay:10.37,2013-09-11 20:15:00,
2013-09-11 15:20:00,90.1,65.3,30.03,East,96,3.5,0.0,44,0.00,CLR,,0.00,WeatherDisplay:10.37,2013-09-11 20:20:00,
2013-09-11 15:25:00,90.5,65.6,30.03,SE,136,5.8,5.8,44,0.00,CLR,,0.00,WeatherDisplay:10.37,2013-09-11 20:25:00,
2013-09-11 15:30:00,90.7,65.8,30.03,SW,233,5.8,5.8,44,0.00,CLR,,0.00,WeatherDisplay:10.37,2013-09-11 20:30:00,
2013-09-11 15:35:00,91.0,65.4,30.03,ESE,115,8.1,8.1,43,0.00,CLR,,0.00,WeatherDisplay:10.37,2013-09-11 20:35:00,
2013-09-11 15:40:00,91.2,64.9,30.03,WSW,256,8.1,8.1,42,0.00,CLR,,0.00,WeatherDisplay:10.37,2013-09-11 20:40:00,
2013-09-11 15:45:00,91.0,66.1,30.03,SE,145,3.5,3.5,44,0.00,CLR,,0.00,WeatherDisplay:10.37,2013-09-11 20:45:00,
2013-09-11 15:50:00,91.2,65.6,30.03,WSW,250,5.8,5.8,43,0.00,CLR,,0.00,WeatherDisplay:10.37,2013-09-11 20:50:00,
2013-09-11 15:55:00,91.4,65.8,30.03,WSW,249,8.1,8.1,43,0.00,CLR,,0.00,WeatherDisplay:10.37,2013-09-11 20:55:00,
2013-09-11 16:00:00,91.9,66.2,30.03,NE,43,4.6,4.6,43,0.00,CLR,,0.00,WeatherDisplay:10.37,2013-09-11 21:00:00,
2013-09-11 16:05:00,88.0,73.8,30.03,SW,230,2.7,0.0,63,0.05,RA,,0.05,WeatherDisplay:10.37,2013-09-11 21:05:00,
2013-09-11 16:10:00,81.5,73.6,30.03,WNW,290,2.3,0.0,77,0.06,RA,,0.06,WeatherDisplay:10.37,2013-09-11 21:10:00,
2013-09-11 16:15:00,80.4,73.3,30.03,North,357,2.2,0.0,79,0.06,RA,,0.06,WeatherDisplay:10.37,2013-09-11 21:15:00,
2013-09-11 16:20:00,81.0,74.9,30.03,SSW,200,3.5,3.5,82,0.06,,,0.06,WeatherDisplay:10.37,2013-09-11 21:20:00,
2013-09-11 16:25:00,81.9,76.2,30.03,WNW,293,3.5,3.6,83,0.06,CLR,,0.06,WeatherDisplay:10.37,2013-09-11 21:25:00,
2013-09-11 16:30:00,82.6,75.4,30.03,SSW,194,3.5,3.5,79,0.06,CLR,,0.06,WeatherDisplay:10.37,2013-09-11 21:30:00,
2013-09-11 16:35:00,83.3,74.9,30.03,North,0,0.0,0.0,76,0.06,CLR,,0.06,WeatherDisplay:10.37,2013-09-11 21:35:00,
2013-09-11 16:40:00,83.8,73.4,30.03,SSW,192,0.0,0.0,71,0.06,CLR,,0.06,WeatherDisplay:10.37,2013-09-11 21:40:00,
2013-09-11 16:45:00,84.9,73.2,30.03,WSW,241,3.5,3.5,68,0.06,CLR,,0.06,WeatherDisplay:10.37,2013-09-11 21:45:00,
2013-09-11 16:50:00,85.6,73.0,30.03,SSW,209,3.5,3.5,66,0.06,CLR,,0.06,WeatherDisplay:10.37,2013-09-11 21:50:00,
2013-09-11 16:55:00,86.7,72.1,30.03,NNW,340,3.5,3.5,62,0.06,CLR,,0.06,WeatherDisplay:10.37,2013-09-11 21:55:00,
2013-09-11 17:00:00,86.9,73.3,30.03,SW,230,3.5,3.5,64,0.06,CLR,,0.06,WeatherDisplay:10.37,2013-09-11 22:00:00,
2013-09-11 17:05:00,86.9,71.8,30.03,SW,231,2.3,0.0,61,0.01,CLR,,0.06,WeatherDisplay:10.37,2013-09-11 22:05:00,
2013-09-11 17:10:00,87.3,72.2,30.03,WSW,244,3.5,3.5,61,0.00,CLR,,0.06,WeatherDisplay:10.37,2013-09-11 22:10:00,
2013-09-11 17:15:00,87.6,72.0,30.00,WSW,245,5.8,5.8,60,0.00,CLR,,0.06,WeatherDisplay:10.37,2013-09-11 22:15:00,
2013-09-11 17:20:00,88.0,71.3,30.00,East,92,2.3,0.0,58,0.00,CLR,,0.06,WeatherDisplay:10.37,2013-09-11 22:20:00,
2013-09-11 17:25:00,88.3,70.7,30.00,WSW,253,6.9,6.9,56,0.00,CLR,,0.06,WeatherDisplay:10.37,2013-09-11 22:25:00,
2013-09-11 17:30:00,88.7,70.5,30.00,SW,222,5.8,5.8,55,0.00,CLR,,0.06,WeatherDisplay:10.37,2013-09-11 22:30:00,
2013-09-11 17:35:00,88.9,69.0,30.00,SW,218,3.5,3.5,52,0.00,CLR,,0.06,WeatherDisplay:10.37,2013-09-11 22:35:00,
2013-09-11 17:41:00,89.1,69.7,30.00,ESE,122,5.8,5.8,53,0.00,CLR,,0.06,WeatherDisplay:10.37,2013-09-11 22:41:00,
2013-09-11 17:46:00,89.2,69.3,30.00,WSW,251,5.8,5.8,52,0.00,CLR,,0.06,WeatherDisplay:10.37,2013-09-11 22:46:00,
2013-09-11 17:51:00,89.2,69.3,30.00,SSE,148,5.8,5.8,52,0.00,CLR,,0.06,WeatherDisplay:10.37,2013-09-11 22:51:00,
2013-09-11 17:56:00,89.2,68.7,30.00,SSE,149,3.5,3.5,51,0.00,CLR,,0.06,WeatherDisplay:10.37,2013-09-11 22:56:00,
2013-09-11 18:01:00,89.1,68.0,30.03,SSW,211,5.8,5.8,50,0.00,CLR,,0.06,WeatherDisplay:10.37,2013-09-11 23:01:00,
2013-09-11 18:06:00,89.1,68.0,30.03,SE,133,5.8,5.8,50,0.00,CLR,,0.06,WeatherDisplay:10.37,2013-09-11 23:06:00,
2013-09-11 18:11:00,88.5,67.5,30.03,WSW,238,5.8,5.8,50,0.00,CLR,,0.06,WeatherDisplay:10.37,2013-09-11 23:11:00,
2013-09-11 18:16:00,88.3,67.9,30.03,SW,229,5.8,5.8,51,0.00,CLR,,0.06,WeatherDisplay:10.37,2013-09-11 23:16:00,
2013-09-11 18:21:00,88.0,67.0,30.03,SSE,154,9.2,9.2,50,0.00,CLR,,0.06,WeatherDisplay:10.37,2013-09-11 23:21:00,
2013-09-11 18:26:00,87.6,66.7,30.03,SE,135,4.6,4.6,50,0.00,CLR,,0.06,WeatherDisplay:10.37,2013-09-11 23:26:00,
2013-09-11 18:31:00,87.3,66.4,30.03,SE,125,3.5,3.5,50,0.00,CLR,,0.06,WeatherDisplay:10.37,2013-09-11 23:31:00,
2013-09-11 18:36:00,87.3,65.8,30.03,SSE,148,5.8,5.8,49,0.00,CLR,,0.06,WeatherDisplay:10.37,2013-09-11 23:36:00,
2013-09-11 18:41:00,87.1,65.0,30.03,SE,128,3.5,3.5,48,0.00,CLR,,0.06,WeatherDisplay:10.37,2013-09-11 23:41:00,
2013-09-11 18:46:00,86.9,64.2,30.03,SSW,192,5.8,5.8,47,0.00,CLR,,0.06,WeatherDisplay:10.37,2013-09-11 23:46:00,
2013-09-11 18:51:00,86.7,64.1,30.03,SSE,148,5.8,5.8,47,0.00,CLR,,0.06,WeatherDisplay:10.37,2013-09-11 23:51:00,
2013-09-11 18:56:00,86.5,63.9,30.03,SSE,154,3.5,3.5,47,0.00,CLR,,0.06,WeatherDisplay:10.37,2013-09-11 23:56:00,
2013-09-11 19:01:00,86.4,63.8,30.03,East,100,3.5,3.5,47,0.00,CLR,,0.06,WeatherDisplay:10.37,2013-09-12 00:01:00,
2013-09-11 19:06:00,86.2,63.6,30.03,WSW,239,3.5,3.5,47,0.00,CLR,,0.06,WeatherDisplay:10.37,2013-09-12 00:06:00,
2013-09-11 19:11:00,85.8,64.5,30.03,WSW,249,3.5,3.5,49,0.00,CLR,,0.06,WeatherDisplay:10.37,2013-09-12 00:11:00,
2013-09-11 19:16:00,85.6,64.9,30.03,SE,137,3.5,3.5,50,0.00,CLR,,0.06,WeatherDisplay:10.37,2013-09-12 00:16:00,
2013-09-11 19:21:00,85.3,65.1,30.03,NW,304,0.0,0.0,51,0.00,CLR,,0.06,WeatherDisplay:10.37,2013-09-12 00:21:00,
2013-09-11 19:26:00,85.1,64.9,30.03,NNW,331,2.3,0.0,51,0.00,CLR,,0.06,WeatherDisplay:10.37,2013-09-12 00:26:00,
2013-09-11 19:31:00,84.7,65.2,30.03,ENE,63,3.5,3.5,52,0.00,CLR,,0.06,WeatherDisplay:10.37,2013-09-12 00:31:00,
2013-09-11 19:36:00,84.6,65.0,30.03,SSE,165,3.5,0.0,52,0.00,CLR,,0.06,WeatherDisplay:10.37,2013-09-12 00:36:00,
2013-09-11 19:41:00,84.2,65.2,30.03,SE,138,0.0,0.0,53,0.00,CLR,,0.06,WeatherDisplay:10.37,2013-09-12 00:41:00,
2013-09-11 19:46:00,84.0,65.0,30.03,ESE,117,2.3,0.0,53,0.00,CLR,,0.06,WeatherDisplay:10.37,2013-09-12 00:46:00,
2013-09-11 19:51:00,83.8,65.4,30.03,ESE,121,2.3,0.0,54,0.00,CLR,,0.06,WeatherDisplay:10.37,2013-09-12 00:51:00,
2013-09-11 19:56:00,83.7,65.3,30.03,SSE,150,3.5,3.5,54,0.00,CLR,,0.06,WeatherDisplay:10.37,2013-09-12 00:56:00,
2013-09-11 20:01:00,83.5,65.1,30.03,SE,144,0.0,0.0,54,0.00,CLR,,0.06,WeatherDisplay:10.37,2013-09-12 01:01:00,
2013-09-11 20:06:00,83.3,65.4,30.03,South,173,0.0,0.0,55,0.00,CLR,,0.06,WeatherDisplay:10.37,2013-09-12 01:06:00,
2013-09-11 20:11:00,83.1,65.8,30.03,South,175,0.0,0.0,56,0.00,CLR,,0.06,WeatherDisplay:10.37,2013-09-12 01:11:00,
2013-09-11 20:16:00,82.9,65.6,30.03,SSW,213,0.0,0.0,56,0.00,CLR,,0.06,WeatherDisplay:10.37,2013-09-12 01:16:00,
2013-09-11 20:21:00,82.9,65.6,30.03,North,353,0.0,0.0,56,0.00,CLR,,0.06,WeatherDisplay:10.37,2013-09-12 01:21:00,
2013-09-11 20:26:00,82.8,66.0,30.03,NNW,344,2.3,0.0,57,0.00,CLR,,0.06,WeatherDisplay:10.37,2013-09-12 01:26:00,
2013-09-11 20:31:00,82.6,66.3,30.03,North,357,3.5,3.5,58,0.00,CLR,,0.06,WeatherDisplay:10.37,2013-09-12 01:31:00,
2013-09-11 20:36:00,82.4,66.1,30.03,NNW,335,2.3,0.0,58,0.00,CLR,,0.06,WeatherDisplay:10.37,2013-09-12 01:36:00,
2013-09-11 20:41:00,82.2,66.0,30.03,North,349,3.5,3.5,58,0.00,CLR,,0.06,WeatherDisplay:10.37,2013-09-12 01:41:00,
2013-09-11 20:46:00,82.0,65.8,30.03,NW,312,3.5,0.0,58,0.00,CLR,,0.06,WeatherDisplay:10.37,2013-09-12 01:46:00,
2013-09-11 20:51:00,82.0,65.8,30.03,North,353,2.2,0.0,58,0.00,CLR,,0.06,WeatherDisplay:10.37,2013-09-12 01:51:00,
2013-09-11 20:56:00,81.9,65.6,30.03,North,10,0.0,0.0,58,0.00,CLR,,0.06,WeatherDisplay:10.37,2013-09-12 01:56:00,
2013-09-11 21:01:00,81.7,65.5,30.03,North,353,2.3,0.0,58,0.00,CLR,,0.06,WeatherDisplay:10.37,2013-09-12 02:01:00,
2013-09-11 21:06:00,81.7,65.0,30.03,North,9,0.0,0.0,57,0.00,CLR,,0.06,WeatherDisplay:10.37,2013-09-12 02:06:00,
2013-09-11 21:11:00,81.5,65.3,30.03,North,357,2.3,0.0,58,0.00,CLR,,0.06,WeatherDisplay:10.37,2013-09-12 02:11:00,
2013-09-11 21:16:00,81.3,65.1,30.03,North,357,0.0,0.0,58,0.00,CLR,,0.06,WeatherDisplay:10.37,2013-09-12 02:16:00,
2013-09-11 21:21:00,81.1,65.0,30.03,North,357,0.0,0.0,58,0.00,CLR,,0.06,WeatherDisplay:10.37,2013-09-12 02:21:00,
2013-09-11 21:26:00,81.0,65.3,30.03,North,357,0.0,0.0,59,0.00,CLR,,0.06,WeatherDisplay:10.37,2013-09-12 02:26:00,
2013-09-11 21:31:00,80.8,65.6,30.06,North,357,0.0,0.0,60,0.00,CLR,,0.06,WeatherDisplay:10.37,2013-09-12 02:31:00,
2013-09-11 21:36:00,80.8,65.6,30.06,North,357,0.0,0.0,60,0.00,CLR,,0.06,WeatherDisplay:10.37,2013-09-12 02:36:00,
2013-09-11 21:41:00,80.6,65.4,30.06,North,357,0.0,0.0,60,0.00,CLR,,0.06,WeatherDisplay:10.37,2013-09-12 02:41:00,
2013-09-11 21:46:00,80.6,65.4,30.06,North,357,0.0,0.0,60,0.00,CLR,,0.06,WeatherDisplay:10.37,2013-09-12 02:46:00,
2013-09-11 21:51:00,80.1,65.4,30.06,North,357,0.0,0.0,61,0.00,CLR,,0.06,WeatherDisplay:10.37,2013-09-12 02:51:00,
2013-09-11 21:56:00,80.1,65.9,30.06,North,357,0.0,0.0,62,0.00,CLR,,0.06,WeatherDisplay:10.37,2013-09-12 02:56:00,
2013-09-11 22:01:00,79.9,65.7,30.06,North,357,0.0,0.0,62,0.00,CLR,,0.06,WeatherDisplay:10.37,2013-09-12 03:01:00,
2013-09-11 22:06:00,79.7,66.0,30.06,North,357,0.0,0.0,63,0.00,CLR,,0.06,WeatherDisplay:10.37,2013-09-12 03:06:00,
2013-09-11 22:11:00,79.7,66.0,30.06,North,357,0.0,0.0,63,0.00,CLR,,0.06,WeatherDisplay:10.37,2013-09-12 03:11:00,
2013-09-11 22:16:00,79.7,66.0,30.06,North,357,0.0,0.0,63,0.00,CLR,,0.06,WeatherDisplay:10.37,2013-09-12 03:16:00,
2013-09-11 22:21:00,79.5,66.3,30.06,North,357,0.0,0.0,64,0.00,CLR,,0.06,WeatherDisplay:10.37,2013-09-12 03:21:00,
2013-09-11 22:26:00,79.5,66.3,30.06,North,357,0.0,0.0,64,0.00,CLR,,0.06,WeatherDisplay:10.37,2013-09-12 03:26:00,
2013-09-11 22:31:00,79.5,66.3,30.06,NE,35,0.0,0.0,64,0.00,CLR,,0.06,WeatherDisplay:10.37,2013-09-12 03:31:00,
2013-09-11 22:36:00,79.3,66.1,30.06,North,357,0.0,0.0,64,0.00,CLR,,0.06,WeatherDisplay:10.37,2013-09-12 03:36:00,
2013-09-11 22:41:00,79.3,66.1,30.06,NNE,17,0.0,0.0,64,0.00,CLR,,0.06,WeatherDisplay:10.37,2013-09-12 03:41:00,
2013-09-11 22:46:00,79.3,66.1,30.06,North,353,0.0,0.0,64,0.00,CLR,,0.06,WeatherDisplay:10.37,2013-09-12 03:46:00,
2013-09-11 22:51:00,79.3,66.1,30.06,NNE,31,0.0,0.0,64,0.00,CLR,,0.06,WeatherDisplay:10.37,2013-09-12 03:51:00,
2013-09-11 22:56:00,79.2,65.9,30.06,NE,34,0.0,0.0,64,0.00,CLR,,0.06,WeatherDisplay:10.37,2013-09-12 03:56:00,
2013-09-11 23:01:00,79.0,65.8,30.06,East,96,0.0,0.0,64,0.00,CLR,,0.06,WeatherDisplay:10.37,2013-09-12 04:01:00,
2013-09-11 23:02:00,79.0,65.8,30.06,NE,43,0.0,0.0,64,0.00,CLR,,0.06,WeatherDisplay:10.37,2013-09-12 04:02:00,
2013-09-11 23:07:00,78.8,65.6,30.06,NE,50,0.0,0.0,64,0.00,CLR,,0.06,WeatherDisplay:10.37,2013-09-12 04:07:00,
2013-09-11 23:08:00,78.8,65.6,30.06,ENE,57,0.0,0.0,64,0.00,CLR,,0.06,WeatherDisplay:10.37,2013-09-12 04:08:00,
2013-09-11 23:13:00,78.6,65.9,30.06,ENE,72,0.0,0.0,65,0.00,CLR,,0.06,WeatherDisplay:10.37,2013-09-12 04:13:00,
2013-09-11 23:18:00,78.6,65.9,30.06,NE,39,0.0,0.0,65,0.00,CLR,,0.06,WeatherDisplay:10.37,2013-09-12 04:18:00,
2013-09-11 23:23:00,78.6,65.9,30.06,NE,53,0.0,0.0,65,0.00,CLR,,0.06,WeatherDisplay:10.37,2013-09-12 04:23:00,
2013-09-11 23:28:00,78.6,65.9,30.06,NE,50,0.0,0.0,65,0.00,CLR,,0.06,WeatherDisplay:10.37,2013-09-12 04:28:00,
2013-09-11 23:33:00,78.6,66.3,30.06,NNE,25,0.0,0.0,66,0.00,CLR,,0.06,WeatherDisplay:10.37,2013-09-12 04:33:00,
2013-09-11 23:38:00,78.6,66.3,30.06,NNE,25,0.0,0.0,66,0.00,CLR,,0.06,WeatherDisplay:10.37,2013-09-12 04:38:00,
2013-09-11 23:43:00,78.6,66.3,30.06,NNE,25,0.0,0.0,66,0.00,CLR,,0.06,WeatherDisplay:10.37,2013-09-12 04:43:00,
2013-09-11 23:48:00,78.4,66.1,30.06,NNE,25,0.0,0.0,66,0.00,CLR,,0.06,WeatherDisplay:10.37,2013-09-12 04:48:00,
2013-09-11 23:53:00,78.3,66.0,30.06,NNE,25,0.0,0.0,66,0.00,CLR,,0.06,WeatherDisplay:10.37,2013-09-12 04:53:00,
2013-09-11 23:58:00,78.3,66.0,30.06,NE,42,0.0,0.0,66,0.00,CLR,,0.06,WeatherDisplay:10.37,2013-09-12 04:58:00,